• In Germany
  • List of Countries
  • For 7 days
  • Water Temperature
  • Satellite Maps
  • Weather Map
  • Weather Widgets
  • user-avatar
    Login

    Hourly Weather Córdoba

    Today, 21 October, Saturday

    Time Temperature Precipitation Wind Pressure Humidity
    00:00 +15°C° 0.2 mm 7 mps 722 mmHg 60%
    01:00 +15°C° 0.2 mm 6 mps 722 mmHg 59%
    02:00 +14°C° 0.2 mm 6 mps 723 mmHg 59%
    03:00 +13°C° 0.1 mm 6 mps 723 mmHg 57%
    04:00 +13°C° 0.1 mm 6 mps 723 mmHg 56%
    05:00 +13°C° 0.1 mm 6 mps 724 mmHg 55%
    06:00 +14°C° 0 mm 6 mps 725 mmHg 52%
    07:00 +14°C° 0 mm 6 mps 725 mmHg 50%
    08:00 +15°C° 0 mm 7 mps 726 mmHg 47%
    09:00 +17°C° 0 mm 7 mps 727 mmHg 42%
    10:00 +19°C° 0 mm 6 mps 727 mmHg 37%
    11:00 +21°C° 0 mm 6 mps 728 mmHg 33%
    12:00 +22°C° 0 mm 6 mps 728 mmHg 31%
    13:00 +22°C° 0 mm 6 mps 727 mmHg 30%
    14:00 +23°C° 0 mm 6 mps 727 mmHg 28%
    15:00 +22°C° 0 mm 6 mps 727 mmHg 29%
    16:00 +22°C° 0 mm 5 mps 727 mmHg 30%
    17:00 +21°C° 0 mm 5 mps 727 mmHg 31%
    18:00 +20°C° 0 mm 4 mps 728 mmHg 35%
    19:00 +18°C° 0 mm 3 mps 728 mmHg 39%
    20:00 +16°C° 0 mm 2 mps 728 mmHg 43%
    21:00 +15°C° 0 mm 2 mps 729 mmHg 44%
    22:00 +15°C° 0 mm 1 mps 729 mmHg 45%
    23:00 +14°C° 0 mm 1 mps 730 mmHg 46%

    Tomorrow, 22 October, Sunday

    Time Temperature Precipitation Wind Pressure Humidity
    00:00 +14°C° 0 mm 1 mps 730 mmHg 47%
    01:00 +13°C° 0 mm 1 mps 730 mmHg 47%
    02:00 +13°C° 0 mm 1 mps 729 mmHg 47%
    03:00 +12°C° 0 mm 1 mps 729 mmHg 48%
    04:00 +12°C° 0 mm 1 mps 729 mmHg 50%
    05:00 +12°C° 0 mm 1 mps 729 mmHg 51%
    06:00 +13°C° 0 mm 1 mps 730 mmHg 48%
    07:00 +14°C° 0 mm 2 mps 730 mmHg 46%
    08:00 +16°C° 0 mm 2 mps 731 mmHg 43%
    09:00 +17°C° 0 mm 3 mps 730 mmHg 40%
    10:00 +19°C° 0 mm 4 mps 730 mmHg 37%
    11:00 +21°C° 0 mm 4 mps 730 mmHg 34%
    12:00 +21°C° 0 mm 5 mps 729 mmHg 33%
    13:00 +22°C° 0 mm 5 mps 729 mmHg 32%
    14:00 +23°C° 0 mm 6 mps 728 mmHg 31%
    15:00 +23°C° 0 mm 6 mps 727 mmHg 32%
    16:00 +22°C° 0 mm 6 mps 726 mmHg 33%
    17:00 +22°C° 0 mm 6 mps 726 mmHg 34%
    18:00 +20°C° 0 mm 5 mps 726 mmHg 38%
    19:00 +18°C° 0 mm 4 mps 726 mmHg 43%
    20:00 +16°C° 0 mm 3 mps 726 mmHg 47%
    21:00 +16°C° 0 mm 3 mps 727 mmHg 49%
    22:00 +15°C° 0 mm 2 mps 727 mmHg 52%
    23:00 +15°C° 0 mm 2 mps 727 mmHg 54%

    Day after tomorrow, 23 October, Monday

    Time Temperature Precipitation Wind Pressure Humidity
    00:00 +14°C° 0 mm 2 mps 727 mmHg 55%
    01:00 +14°C° 0 mm 2 mps 726 mmHg 57%
    02:00 +13°C° 0 mm 2 mps 726 mmHg 59%
    03:00 +13°C° 0 mm 2 mps 726 mmHg 60%
    04:00 +12°C° 0 mm 3 mps 726 mmHg 61%
    05:00 +11°C° 0 mm 3 mps 725 mmHg 63%
    06:00 +13°C° 0 mm 4 mps 726 mmHg 59%
    07:00 +14°C° 0 mm 4 mps 726 mmHg 56%
    08:00 +16°C° 0 mm 5 mps 727 mmHg 52%
    09:00 +19°C° 0 mm 6 mps 726 mmHg 48%
    10:00 +21°C° 0 mm 6 mps 726 mmHg 43%
    11:00 +22°C° 0 mm 6 mps 726 mmHg 39%
    12:00 +23°C° 0 mm 6 mps 725 mmHg 37%
    13:00 +24°C° 0 mm 6 mps 724 mmHg 34%
    14:00 +26°C° 0 mm 6 mps 724 mmHg 32%
    15:00 +26°C° 0 mm 6 mps 723 mmHg 33%
    16:00 +24°C° 0 mm 6 mps 723 mmHg 34%
    17:00 +24°C° 0 mm 6 mps 722 mmHg 34%
    18:00 +22°C° 0 mm 5 mps 722 mmHg 39%
    19:00 +20°C° 0 mm 4 mps 723 mmHg 43%
    20:00 +18°C° 0 mm 3 mps 723 mmHg 47%
    21:00 +17°C° 0 mm 3 mps 723 mmHg 49%
    22:00 +17°C° 0 mm 3 mps 723 mmHg 52%
    23:00 +16°C° 0 mm 2 mps 723 mmHg 54%

    24 October, Tuesday

    Time Temperature Precipitation Wind Pressure Humidity
    00:00 +16°C° 0 mm 2 mps 723 mmHg 55%
    01:00 +15°C° 0 mm 2 mps 723 mmHg 57%
    02:00 +15°C° 0 mm 2 mps 722 mmHg 58%
    03:00 +14°C° 0 mm 2 mps 723 mmHg 61%
    04:00 +14°C° 0 mm 2 mps 723 mmHg 63%
    05:00 +14°C° 0 mm 2 mps 723 mmHg 65%
    06:00 +16°C° 0 mm 2 mps 723 mmHg 60%
    07:00 +17°C° 0 mm 3 mps 724 mmHg 56%
    08:00 +19°C° 0 mm 3 mps 724 mmHg 51%
    09:00 +21°C° 0 mm 3 mps 724 mmHg 46%
    10:00 +23°C° 0 mm 4 mps 724 mmHg 41%
    11:00 +27°C° 0 mm 4 mps 724 mmHg 36%
    12:00 +28°C° 0 mm 4 mps 724 mmHg 34%
    13:00 +29°C° 0 mm 5 mps 723 mmHg 33%
    14:00 +30°C° 0 mm 5 mps 722 mmHg 31%
    15:00 +29°C° 0 mm 5 mps 722 mmHg 33%
    16:00 +28°C° 0 mm 5 mps 722 mmHg 34%
    17:00 +28°C° 0 mm 5 mps 721 mmHg 36%
    18:00 +26°C° 0 mm 4 mps 722 mmHg 42%
    19:00 +22°C° 0 mm 3 mps 722 mmHg 47%
    20:00 +20°C° 0 mm 2 mps 722 mmHg 53%
    21:00 +20°C° 0 mm 2 mps 723 mmHg 55%
    22:00 +20°C° 0 mm 1 mps 723 mmHg 56%
    23:00 +20°C° 0 mm 1 mps 723 mmHg 58%

    25 October, Wednesday

    Time Temperature Precipitation Wind Pressure Humidity
    00:00 +19°C° 0 mm 1 mps 722 mmHg 59%
    01:00 +19°C° 0 mm 1 mps 722 mmHg 60%
    02:00 +19°C° 0 mm 1 mps 722 mmHg 60%
    03:00 +19°C° 0 mm 1 mps 722 mmHg 62%
    04:00 +18°C° 0 mm 1 mps 722 mmHg 64%
    05:00 +18°C° 0 mm 1 mps 722 mmHg 65%
    06:00 +19°C° 0 mm 1 mps 722 mmHg 61%
    07:00 +20°C° 0 mm 2 mps 722 mmHg 57%
    08:00 +23°C° 0 mm 2 mps 723 mmHg 53%
    09:00 +24°C° 0.2 mm 2 mps 723 mmHg 49%
    10:00 +26°C° 0.2 mm 3 mps 722 mmHg 46%
    11:00 +27°C° 0.2 mm 3 mps 722 mmHg 43%
    12:00 +28°C° 0.3 mm 4 mps 722 mmHg 43%
    13:00 +28°C° 0.3 mm 4 mps 721 mmHg 43%
    14:00 +29°C° 0.3 mm 5 mps 720 mmHg 43%
    15:00 +28°C° 0.3 mm 4 mps 720 mmHg 47%
    16:00 +27°C° 0.3 mm 4 mps 720 mmHg 50%
    17:00 +27°C° 0.3 mm 3 mps 719 mmHg 53%
    18:00 +25°C° 0 mm 3 mps 719 mmHg 59%
    19:00 +23°C° 0 mm 2 mps 720 mmHg 65%
    20:00 +22°C° 0 mm 1 mps 720 mmHg 72%
    21:00 +21°C° 0 mm 1 mps 720 mmHg 73%
    22:00 +21°C° 0 mm 1 mps 720 mmHg 74%
    23:00 +18°C° 0 mm 0 mps 720 mmHg 76%

    26 October, Thursday

    Time Temperature Precipitation Wind Pressure Humidity
    00:00 +20°C° 0.1 mm 1 mps 719 mmHg 76%
    01:00 +20°C° 0.1 mm 1 mps 719 mmHg 77%
    02:00 +20°C° 0.1 mm 1 mps 718 mmHg 78%
    03:00 +19°C° 0 mm 1 mps 719 mmHg 77%
    04:00 +19°C° 0 mm 1 mps 719 mmHg 76%
    05:00 +19°C° 0 mm 1 mps 719 mmHg 76%
    06:00 +21°C° 0.1 mm 1 mps 719 mmHg 68%
    07:00 +24°C° 0.1 mm 1 mps 720 mmHg 61%
    08:00 +26°C° 0.1 mm 1 mps 720 mmHg 53%
    09:00 +27°C° 0.2 mm 2 mps 720 mmHg 49%
    10:00 +29°C° 0.2 mm 2 mps 720 mmHg 45%
    11:00 +30°C° 0.2 mm 3 mps 720 mmHg 41%
    12:00 +31°C° 0 mm 3 mps 720 mmHg 41%
    13:00 +31°C° 0 mm 3 mps 719 mmHg 41%
    14:00 +31°C° 0 mm 3 mps 719 mmHg 40%
    15:00 +30°C° 0.3 mm 4 mps 719 mmHg 44%
    16:00 +29°C° 0.3 mm 4 mps 719 mmHg 47%
    17:00 +28°C° 0.3 mm 4 mps 719 mmHg 50%
    18:00 +27°C° 0.1 mm 4 mps 720 mmHg 57%
    19:00 +25°C° 0.1 mm 4 mps 720 mmHg 65%
    20:00 +22°C° 0.1 mm 3 mps 721 mmHg 72%
    21:00 +21°C° 0 mm 3 mps 721 mmHg 76%
    22:00 +21°C° 0 mm 3 mps 722 mmHg 79%
    23:00 +20°C° 0 mm 2 mps 722 mmHg 83%
    Show more